Theta_e
353 355 353 345 329 329 320 321 328 326 327 333 333 331 330 334 326 320 345 348 352 354 357 358 364 365 365 367 368 367 370 369 367 367 365 366 365 364 364 362 361 361 361 361 362 362 363 365 362
351 353 349 337 324 318 320 327 324 329 333 336 336 334 331 331 337 338 341 350 353 355 356 358 364 366 365 366 367 367 367 365 366 368 367 366 365 364 364 362 361 361 361 361 360 360 361 361 363
349 353 338 329 324 318 320 326 329 332 335 333 332 336 333 332 337 340 348 351 354 356 357 361 364 366 364 365 366 367 367 365 360 360 358 364 364 364 363 362 362 361 360 360 360 360 359 358 358
347 344 337 326 320 324 325 329 331 331 334 335 333 330 336 342 339 345 349 353 353 355 357 362 364 364 364 364 365 363 363 360 357 355 354 359 360 362 362 362 362 361 361 361 360 360 359 357 357
346 337 327 322 320 325 330 333 333 330 333 334 334 329 330 343 347 348 348 352 352 353 358 360 366 366 365 364 364 365 362 361 358 357 352 353 356 359 361 361 360 361 361 361 360 359 358 357 356
334 334 321 318 321 327 330 335 333 332 333 334 332 330 334 347 346 346 349 350 354 354 358 358 364 365 366 365 364 365 364 361 358 356 353 351 352 354 357 360 360 360 361 359 358 359 358 356 355
331 328 320 321 322 326 330 337 333 331 332 332 337 331 338 343 346 347 348 349 353 355 357 357 358 360 362 364 363 363 363 362 359 355 356 354 352 350 355 355 359 358 357 357 357 357 357 356 355
333 329 320 322 320 321 333 335 336 333 332 340 340 331 333 344 346 347 347 346 348 353 356 357 359 359 361 359 364 363 362 359 358 356 353 357 348 344 353 352 355 355 356 356 355 355 355 356 355
331 323 320 320 321 324 336 332 337 341 335 336 339 338 342 346 346 344 344 346 348 350 354 356 356 359 359 362 360 365 362 360 358 357 354 354 343 342 342 349 355 356 354 354 354 356 356 355 356
326 322 320 326 328 328 335 333 336 334 334 335 335 342 345 345 343 341 340 341 344 348 352 354 355 356 359 356 361 363 363 356 355 360 357 356 348 345 343 348 353 356 355 353 354 358 357 357 359
324 319 323 325 329 332 333 332 338 334 330 334 335 338 343 342 342 340 341 341 343 349 353 354 358 359 359 359 359 358 358 361 359 359 359 353 352 354 355 355 351 352 354 354 352 358 360 355 360
319 323 324 325 332 333 332 336 332 335 332 338 341 342 343 342 342 341 341 342 344 348 351 355 358 360 361 360 359 358 357 363 362 360 359 359 351 352 354 357 351 353 352 353 352 357 360 358 359
318 318 324 327 330 332 335 333 332 333 339 341 341 341 341 342 343 345 345 345 347 348 350 354 358 360 360 361 360 359 357 359 363 359 360 359 354 353 352 352 353 353 353 352 356 356 356 355 354
317 317 318 323 326 327 327 329 332 333 339 339 339 339 342 343 343 345 346 347 347 349 351 353 356 359 360 360 361 358 359 359 359 358 357 358 356 354 353 354 353 352 352 353 355 356 355 356 356
317 314 317 319 322 323 327 322 324 334 337 337 338 340 341 343 345 345 347 348 349 351 352 352 354 357 359 359 359 359 359 360 360 360 359 357 357 355 356 353 349 354 356 358 357 356 357 355 355
312 314 310 317 319 322 324 314 323 331 335 335 337 339 340 343 344 347 348 349 351 351 351 353 352 354 356 357 358 359 360 359 354 352 362 359 359 355 356 350 353 359 356 355 355 354 353 353 354
310 306 307 311 317 318 320 316 319 327 334 333 336 337 339 341 344 347 349 350 350 352 352 349 352 352 355 359 359 360 360 362 359 352 355 360 359 357 357 354 356 359 354 355 355 352 352 349 350
305 305 306 307 312 315 316 317 321 327 332 333 334 335 337 339 342 346 347 348 351 352 354 353 350 354 357 357 359 357 355 359 354 351 354 357 359 360 354 355 359 352 360 354 353 353 352 350 350
308 306 305 309 312 310 313 315 317 320 328 330 333 334 334 336 342 346 347 348 347 351 352 354 354 356 355 353 351 351 350 356 349 348 355 358 360 360 355 351 356 355 355 354 358 355 352 352 350
306 305 307 309 310 311 311 311 316 315 320 327 332 334 335 336 336 339 346 347 343 346 351 353 355 357 356 355 355 354 354 354 355 358 357 360 360 360 358 349 356 358 353 357 357 355 354 355 353
306 306 306 305 308 309 310 309 312 315 318 319 328 335 337 337 336 337 342 346 347 346 350 353 356 357 357 358 356 354 355 355 352 353 354 357 359 359 357 354 350 358 359 354 357 355 355 352 354
305 307 306 305 306 303 308 303 311 315 315 320 321 325 332 337 339 339 340 344 345 347 342 351 356 356 357 358 355 354 352 351 351 357 357 357 359 358 358 359 357 352 354 356 355 355 355 354 352
307 309 307 307 306 305 305 304 310 319 319 322 321 327 327 330 335 339 341 343 348 350 347 351 354 355 357 357 357 354 353 352 353 354 355 357 357 357 358 359 359 354 354 355 355 355 356 354 355
309 308 307 307 306 303 303 303 308 316 318 323 328 331 332 329 332 338 342 345 347 350 349 349 352 353 357 356 357 356 355 354 350 351 351 351 353 354 356 358 357 357 355 354 353 355 357 355 353
308 307 303 301 302 300 304 304 309 319 324 326 328 331 330 331 335 338 340 343 346 347 349 350 348 350 354 355 355 356 355 355 353 354 351 351 350 351 353 356 351 347 353 355 355 356 357 358 356
307 308 304 295 298 301 305 304 310 323 328 331 331 331 332 333 337 339 341 344 344 347 349 347 349 351 351 352 354 356 357 354 353 355 353 352 351 351 354 354 353 347 352 355 358 355 360 359 355
306 307 306 302 300 301 304 309 319 324 326 330 331 331 332 334 337 339 342 344 342 347 349 350 350 349 343 346 353 353 355 356 354 356 356 354 356 354 355 351 349 351 353 353 356 359 356 356 356
310 308 304 306 298 296 302 304 306 319 322 327 329 330 333 336 337 339 341 341 344 345 349 351 348 346 346 347 347 352 353 356 357 357 355 355 356 351 353 346 346 352 351 353 356 355 357 354 351
308 306 304 305 304 299 297 303 314 318 324 325 327 331 334 336 335 335 336 338 340 346 350 350 351 350 351 352 353 353 353 350 356 355 356 356 356 351 348 346 347 351 350 352 357 356 356 355 355
307 306 306 304 300 302 302 302 316 325 324 324 328 332 336 337 336 334 334 336 339 340 340 340 345 352 353 354 355 354 355 355 348 347 349 356 355 354 346 350 352 350 351 356 356 355 350 353 351
Wind_Speed
4 5 2 1 2 3 3 5 2 5 4 3 9 2 1 6 2 4 10 8 18 17 15 15 13 14 14 15 16 17 16 16 16 14 14 14 16 16 16 15 15 15 15 15 14 13 13 14 14
3 4 1 1 3 3 3 4 2 2 6 11 9 5 3 5 4 10 14 17 18 17 15 15 14 15 15 15 16 17 17 17 15 14 13 12 13 14 15 14 14 14 15 14 14 12 12 11 11
4 3 1 3 3 2 3 2 6 9 4 3 4 7 4 3 6 17 10 20 18 15 15 15 14 15 15 15 15 16 17 18 17 13 10 10 12 13 13 13 13 13 14 13 13 11 11 10 9
1 2 3 4 5 2 1 2 4 4 4 6 6 7 6 5 13 6 20 19 18 16 15 17 18 17 15 14 14 15 16 19 18 13 10 7 8 11 12 11 12 12 12 12 11 10 9 8 7
1 2 4 4 3 3 2 2 2 3 4 3 2 5 7 3 6 16 19 17 17 16 14 17 16 17 16 15 14 15 16 19 21 14 12 10 8 9 10 10 10 10 10 10 9 8 7 5 5
2 1 3 3 2 1 2 1 4 2 2 1 6 8 5 5 14 17 17 16 16 16 14 15 16 15 15 16 16 16 16 18 19 21 16 7 5 5 4 8 8 7 8 7 6 6 5 4 3
3 2 3 2 1 2 1 5 3 3 2 1 7 5 5 7 13 17 15 14 15 15 14 13 14 15 16 14 15 16 16 17 17 19 19 16 9 3 9 5 6 6 6 6 5 4 3 3 1
2 1 2 2 1 1 2 5 5 3 4 4 0 4 6 11 16 15 14 14 14 13 14 13 12 13 12 13 15 15 15 14 15 16 19 18 18 5 14 6 5 3 3 3 3 2 2 2 1
1 2 1 0 2 2 7 4 3 3 5 2 2 3 6 21 18 16 14 12 12 11 13 13 14 12 12 11 13 14 15 14 14 15 16 16 12 11 18 10 5 4 2 1 1 3 3 2 2
1 0 3 2 2 3 6 4 7 5 5 4 5 9 18 21 19 19 18 16 16 14 14 13 13 13 12 10 10 11 10 8 6 10 12 8 11 10 12 13 11 8 5 4 4 6 5 5 1
1 2 3 2 4 4 4 3 4 3 4 8 9 16 20 21 18 18 17 17 18 15 12 13 12 11 12 10 8 5 6 5 6 10 9 10 8 7 7 5 6 7 7 4 4 3 2 4 2
3 2 4 1 4 5 4 5 4 7 1 2 12 19 21 21 19 19 18 17 17 16 15 14 13 12 11 7 8 8 6 6 5 7 10 6 5 7 6 5 7 6 5 5 4 3 2 3 3
3 6 2 1 5 3 6 8 5 9 5 9 16 20 20 19 19 16 15 14 15 15 14 14 13 12 11 11 8 8 7 6 7 7 8 6 6 7 6 5 6 6 5 5 4 4 3 4 4
5 7 11 3 6 5 6 2 5 2 10 13 16 18 19 20 20 15 15 15 16 14 15 14 14 13 12 11 10 8 7 7 6 6 7 8 7 6 6 5 5 5 5 5 4 4 4 3 3
5 5 6 4 2 4 3 6 11 4 12 14 15 14 16 18 17 19 18 16 16 13 13 14 15 14 14 13 11 8 8 7 7 6 9 9 8 7 6 3 3 5 5 5 5 5 4 5 5
4 2 4 4 1 1 6 14 5 8 13 14 16 15 15 18 21 18 16 16 14 12 13 13 13 15 15 13 10 8 8 8 3 1 6 10 9 7 6 4 5 4 4 5 4 5 4 4 4
6 2 4 7 3 1 7 12 1 4 11 14 16 16 15 15 17 16 15 13 11 10 10 11 12 15 14 12 9 8 9 7 5 4 6 9 9 8 7 6 5 6 5 5 5 5 5 5 5
7 4 4 5 3 1 8 17 12 5 12 16 17 16 16 17 20 15 14 12 11 11 13 14 10 11 12 9 7 4 5 6 3 3 8 8 6 9 5 6 6 3 5 5 5 6 5 4 3
5 4 6 4 4 3 7 13 17 7 13 14 14 16 17 20 15 12 12 9 3 11 12 15 15 12 11 8 6 6 7 7 6 7 13 11 9 9 6 5 6 6 6 6 6 5 6 5 4
2 3 5 9 2 2 8 13 11 3 9 12 13 16 19 15 15 14 14 17 15 15 15 16 16 14 12 9 6 5 6 6 5 9 10 12 9 9 8 7 8 8 6 7 6 7 3 4 4
3 3 4 5 6 2 9 5 7 4 3 4 9 13 17 17 16 15 19 22 20 14 13 13 15 14 13 12 6 4 3 2 4 6 6 7 9 11 10 8 5 9 6 6 6 7 6 3 4
3 4 7 7 5 5 5 4 3 8 5 10 10 8 12 15 15 15 20 22 21 17 15 16 15 14 12 13 11 11 8 8 7 6 6 5 8 9 10 10 10 5 4 7 6 5 6 5 4
2 2 1 2 3 3 4 4 4 7 8 16 13 10 7 12 14 15 19 22 21 20 18 8 8 9 10 11 12 9 10 7 4 4 6 6 7 9 11 11 10 9 8 8 8 7 7 6 4
2 3 2 2 1 1 4 5 3 7 8 14 14 13 12 7 5 9 14 14 15 14 11 9 9 9 10 11 12 11 12 10 6 6 5 6 6 7 9 10 9 10 8 9 8 8 8 8 7
4 2 1 2 1 3 2 4 3 8 8 10 14 13 10 4 8 12 15 16 17 18 16 13 12 12 14 13 13 13 13 11 11 9 7 7 7 8 10 11 8 5 8 9 9 9 9 9 8
2 2 1 3 4 4 1 3 3 6 9 8 6 4 3 5 8 11 12 11 10 11 14 15 16 12 12 13 13 12 13 10 9 10 8 8 8 8 8 10 11 10 10 9 9 8 8 7 7
5 2 3 5 1 4 1 3 7 4 5 6 6 4 1 5 7 9 7 10 7 10 12 10 10 8 8 10 11 12 12 13 11 12 10 9 9 7 9 9 10 13 13 11 10 7 8 7 7
2 8 3 0 3 7 3 4 6 4 2 3 4 3 4 6 5 7 9 10 10 5 8 8 8 10 10 6 9 10 12 12 9 9 10 10 8 7 9 8 10 12 12 10 11 8 9 7 6
4 4 5 2 3 5 6 2 4 5 3 6 6 6 8 6 8 7 10 11 10 7 7 7 9 12 14 14 10 10 9 4 6 11 11 11 9 9 9 9 9 12 11 11 10 10 8 8 7
2 2 3 3 2 1 3 3 6 1 4 8 7 5 8 7 6 7 8 8 7 6 4 4 3 9 13 12 12 13 10 12 8 2 12 12 11 11 9 9 10 9 9 11 11 11 7 8 9
Wind_Direction
204 175 150 149 71 68 54 47 334 116 144 110 142 174 160 54 18 57 133 142 139 142 143 141 131 126 129 133 137 140 136 136 136 140 138 134 132 126 121 120 116 114 107 103 101 98 97 100 107
176 160 164 93 68 62 28 358 21 29 93 117 110 117 65 77 70 118 138 149 143 143 145 143 137 131 130 133 137 138 140 135 134 134 136 140 140 134 129 127 122 117 112 109 105 103 100 99 100
222 235 279 64 77 85 93 57 93 97 125 137 110 58 47 44 86 142 132 148 143 144 146 138 139 136 134 138 139 141 142 136 134 136 128 151 146 139 138 133 128 121 117 115 111 106 103 103 108
267 179 84 57 61 113 146 134 106 62 54 60 94 66 82 350 141 151 146 147 144 147 149 143 146 143 146 143 141 139 139 134 134 150 152 175 169 146 142 138 131 127 123 119 116 113 110 112 116
30 59 55 57 25 302 244 268 142 26 21 32 72 97 94 63 132 140 149 151 144 149 147 149 147 145 150 153 152 147 148 144 149 131 154 171 213 162 151 147 141 136 129 127 122 123 124 129 137
72 8 82 74 357 356 277 166 155 26 16 134 100 112 113 122 142 150 155 154 148 151 150 151 150 152 154 159 163 163 159 156 155 152 173 166 160 250 193 152 146 149 140 136 130 136 137 137 171
67 55 64 99 85 319 122 131 156 163 149 97 126 105 107 156 150 152 155 154 153 154 154 155 158 161 163 166 165 164 168 162 163 160 157 159 180 200 290 231 168 164 147 141 143 146 151 153 218
74 8 53 82 216 297 137 120 141 161 184 135 168 137 161 163 156 152 155 158 161 166 161 163 165 167 170 171 173 170 170 168 168 163 169 167 171 165 262 259 229 187 188 155 145 181 194 179 171
93 60 24 113 196 316 137 138 161 129 146 137 77 96 123 146 152 154 157 160 170 176 176 171 171 174 176 175 180 178 178 175 178 177 171 169 182 198 233 256 247 230 206 298 289 257 240 205 184
13 303 201 205 204 270 154 168 184 190 172 172 155 102 136 148 159 165 173 174 182 180 184 180 180 179 180 186 186 186 188 183 159 181 181 180 188 204 219 238 230 232 236 267 297 302 276 230 232
105 308 307 199 212 245 145 159 202 208 215 200 189 149 155 161 170 177 183 186 185 183 186 189 187 186 189 192 196 197 194 189 190 191 180 190 189 198 212 224 231 232 230 248 261 284 240 234 232
279 226 218 351 182 153 181 151 221 227 34 330 160 159 163 172 180 184 188 187 187 192 192 186 186 188 197 198 196 204 208 190 187 190 192 174 192 195 201 214 221 235 237 236 255 253 223 219 236
312 339 284 235 168 191 161 206 223 242 228 121 145 159 173 181 186 189 192 190 191 195 193 191 193 194 192 198 200 210 202 212 201 185 186 165 191 203 207 217 227 229 222 229 235 240 231 228 235
327 308 295 262 187 213 222 229 188 64 143 137 161 175 179 187 190 188 193 196 195 196 196 190 196 196 198 203 203 210 210 216 208 197 191 187 203 204 203 206 215 204 201 224 233 228 232 229 244
313 318 324 273 214 219 205 254 233 218 163 160 178 186 189 196 194 201 198 202 195 197 192 192 197 195 201 206 209 208 214 212 211 213 199 192 201 207 214 188 211 217 203 216 219 229 224 239 236
25 48 339 2 33 359 202 273 275 206 171 182 183 186 200 205 206 208 206 204 203 200 197 195 200 200 201 203 205 214 212 219 180 290 215 197 201 206 211 209 221 214 192 210 221 226 235 247 255
23 345 4 328 3 64 219 275 268 195 204 196 193 193 199 214 216 213 213 211 200 211 205 201 205 206 204 205 208 211 229 234 190 152 269 225 197 200 218 220 226 188 211 213 221 223 231 240 244
317 344 322 292 322 236 246 260 260 200 212 217 200 200 202 211 220 205 183 208 201 204 209 204 191 211 201 202 200 214 227 243 167 160 240 243 221 213 196 226 230 218 227 216 216 227 213 250 260
291 288 304 263 278 279 276 259 272 233 223 230 211 210 213 214 215 203 189 132 96 230 213 202 202 195 188 193 189 207 221 214 169 200 233 228 221 210 193 219 231 215 225 230 214 218 232 228 225
239 285 284 289 293 231 283 281 300 260 260 249 221 218 222 218 215 187 179 160 192 207 209 208 208 202 194 202 199 212 194 220 204 194 229 227 206 207 202 201 219 215 219 223 217 214 209 209 203
193 237 258 282 315 218 309 297 7 339 312 313 233 224 227 226 214 184 182 184 192 211 244 221 214 202 196 199 185 181 163 159 199 220 219 207 209 216 205 199 207 229 212 228 221 210 218 228 195
302 216 264 285 279 322 343 324 9 345 338 41 21 239 240 233 220 193 185 197 195 190 212 205 211 198 200 193 198 203 217 221 220 215 218 188 205 211 211 214 210 213 208 225 228 219 230 224 224
287 334 343 314 283 273 39 281 74 348 344 356 348 351 291 247 225 192 196 197 196 195 211 191 223 211 209 205 219 208 220 231 244 217 228 215 204 212 217 215 210 210 217 224 233 230 224 224 228
112 203 82 109 312 197 5 324 51 6 324 321 329 334 335 298 225 182 190 189 197 194 200 176 194 208 203 207 214 229 235 216 216 226 235 229 219 213 220 217 214 207 213 219 223 227 225 217 212
199 243 329 177 32 16 336 253 353 324 330 313 314 328 353 72 154 158 171 182 186 185 176 164 184 199 200 196 203 213 231 236 222 216 227 238 233 224 220 212 209 201 219 225 232 222 226 219 206
106 331 48 352 335 348 177 279 46 316 323 330 330 345 60 139 161 167 176 187 143 184 183 190 169 183 198 195 209 208 219 225 228 221 220 229 232 234 232 221 220 214 220 226 222 225 224 213 221
143 136 24 119 117 256 5 252 256 274 326 4 10 5 222 186 175 179 143 108 74 167 200 227 197 165 185 210 190 198 213 221 225 223 223 223 220 225 231 226 214 220 221 225 224 219 223 210 220
344 130 185 99 270 291 236 260 277 215 243 31 34 339 265 230 102 82 77 71 73 91 186 208 202 211 229 218 228 212 220 216 236 240 228 228 227 226 227 216 216 218 213 220 215 215 220 196 208
156 151 73 107 324 298 292 289 344 273 311 334 348 330 302 324 45 54 59 56 51 55 80 182 214 234 248 255 251 239 219 162 264 244 239 237 217 212 210 201 207 212 211 214 208 216 214 204 212
324 92 225 267 199 118 301 259 344 318 331 322 319 334 330 332 26 52 44 44 47 44 67 106 194 242 245 255 256 252 249 177 182 283 267 241 215 208 199 196 204 199 211 208 206 210 199 207 206